Location: B�touchov
(50.4758°N, 14.8897°E)
Time: 02:07:53
(UTC+00:00)

Daily predictions for brighter satellites

Satellite Brightness Start Highest point End
(mag) Time Altitude Azimuth Time Altitude Azimuth Time Altitude Azimuth
CENTAUR R/B 4.3 00:04:08 10° NW 00:10:46 34° NNE 00:18:17 10° ENE
Cosmos 2360 Rocket 4.4 00:26:52 10° NNW 00:30:27 22° NNE 00:30:27 22° NNE
ADEOS II 4.4 00:34:48 10° NNE 00:36:32 19° NE 00:36:32 19° NE
Cosmos 2082 Rocket 3.9 01:00:46 29° NNE 01:00:46 29° NNE 01:03:25 10° NNE
Cosmos 2219 Rocket 4.5 01:10:37 10° NNW 01:14:49 21° NE 01:19:00 10° E
ATLAS 3B R/B 4.4 01:22:13 19° NNW 01:25:36 27° N 01:31:28 10° ENE
CZ-2D R/B 4.0 01:23:25 10° N 01:25:31 24° N 01:25:31 24° N
NOSS 3-1 (C) 4.5 01:40:38 38° NNW 01:40:38 38° NNW 01:46:29 10° NE
ARIANE 5 R/B 3.8 01:39:23 10° NNE 01:43:02 36° ENE 01:43:02 36° ENE
USA 267 3.5 01:42:43 10° ENE 01:48:35 61° ESE 01:48:35 61° ESE
NOSS 3-2 (A) 4.1 01:44:32 10° NW 01:51:49 72° NE 02:00:11 10° SE
Resurs 1-4 Rocket 3.9 01:55:14 10° N 01:57:29 22° NNW 01:57:29 22° NNW
CENTAUR R/B 3.4 01:55:10 10° NW 02:02:57 65° NE 02:11:41 10° ESE
Cosmos 2360 Rocket 4.0 02:10:25 10° NNW 02:22:23 - SSE 02:12:08 20° NNW
ADEOS II 3.3 02:14:23 10° N 02:17:30 31° NNW 02:17:30 31° NNW
IDEFIX/ARIANE 42P 3.0 02:15:39 10° NNE 02:19:42 54° N 02:19:42 54° N
ISS -0.8 02:27:42 15° E 02:27:42 15° E 02:28:22 10° E
USA 234 3.4 02:18:43 10° SE 02:24:09 56° S 02:24:09 56° S
ADEOS Rocket 4.1 02:30:07 26° NNW 02:30:07 26° NNW 02:32:33 10° NNW
CZ-4C R/B 4.3 02:25:01 11° SE 02:27:46 17° ESE 02:31:16 10° ENE
Meteor 2-15 Rocket 4.3 02:29:08 80° W 02:29:15 80° W 02:35:26 10° N
CZ-2C R/B 4.3 02:25:58 10° NNE 02:28:51 35° ENE 02:28:51 35° ENE
Cosmos 1553 Rocket 3.8 02:32:42 73° SW 02:33:17 81° W 02:39:33 10° N
NOSS 3-2 (C) 4.1 02:26:31 10° NW 02:33:51 78° NE 02:42:17 10° SE
Meteor 2-2 Rocket 4.5 02:33:06 50° SSE 02:34:40 73° E 02:40:43 10° NNE
SL-08 ROCKET BODY 4.5 02:30:30 10° NNW 02:35:55 60° WNW 02:35:55 60° WNW
Cosmos 1417 Rocket 4.4 02:35:32 63° SSW 02:36:40 87° W 02:43:05 10° N
Lacrosse 5 2.5 02:40:09 46° SE 02:40:09 46° SE 02:43:44 10° SE
Cosmos 2082 Rocket 3.6 02:42:36 25° NW 02:42:36 25° NW 02:47:08 10° NNE
ARGOS Delta rocket 4.3 02:37:21 10° N 02:42:07 55° NW 02:42:07 55° NW
MSX 3.7 02:38:00 10° NNE 02:43:45 73° WNW 02:44:10 70° WSW
Cosmos 2333 Rocket 2.5 02:39:00 10° NNW 02:44:47 70° ENE 02:50:32 10° SE
SL-27 R/B 4.3 02:53:54 26° N 02:53:54 26° N 02:55:40 10° NNE
Cosmos 2221 2.9 02:53:27 54° NNW 02:53:27 54° NNW 02:56:55 10° N
Cosmos 1805 Rocket 4.0 02:50:38 10° N 02:55:05 63° ENE 02:59:30 10° SSE
Cosmos 2315 Rocket 4.4 02:49:54 10° S 02:55:58 60° E 03:02:04 10° NNE
NOSS 2-2 (D) 4.4 02:56:55 35° N 02:56:55 35° N 03:00:01 10° NE
Cosmos 1743 Rocket 4.3 02:52:09 10° NNW 02:55:12 42° NNW 02:55:12 42° NNW
Cosmos 2219 Rocket 2.3 02:54:03 10° NNW 02:59:45 76° ENE 03:05:25 10° SE
Cosmos 1269 Rocket 4.4 03:00:32 47° WNW 03:00:32 47° WNW 03:05:38 10° NNE
CZ-2C R/B 2.4 02:55:46 10° NNE 03:00:32 73° ESE 03:02:02 43° S
Landsat 5 3.8 02:57:34 10° SSE 03:01:20 60° ENE 03:05:15 10° N
CZ-2D R/B 4.3 02:58:00 10° N 03:00:54 39° NNW 03:00:54 39° NNW
CZ-2D R/B 4.3 03:05:56 10° NNW 03:06:50 11° NW 03:06:50 11° NW
Sich 1 3.3 03:07:29 10° N 03:11:56 71° ENE 03:16:18 10° SSE
GEOS 3 Rocket 4.3 03:07:23 10° NE 03:12:23 41° NNW 03:13:38 35° WNW
Cosmos 1606 2.7 03:12:56 62° S 03:13:32 81° E 03:17:27 10° NNE
USA 238 DEB 3.8 03:07:01 10° NW 03:14:06 61° SW 03:21:29 10° SSE
USA 238 3.8 03:07:07 10° NW 03:14:13 61° SW 03:21:36 10° SSE
COSMOS 2428 2.7 03:10:21 10° NNW 03:16:06 85° ENE 03:21:50 10° SSE
CZ-4B R/B 4.4 03:12:22 10° N 03:16:35 30° NW 03:16:35 30° NW
ATLAS 3B R/B 3.6 03:11:18 10° NW 03:17:56 47° NNE 03:24:50 10° ESE
Cosmos 1666 Rocket 4.3 03:14:33 10° N 03:18:51 52° ENE 03:23:08 10° SSE
ATLAS 5 CENTAUR R/B 3.2 03:19:17 14° S 03:21:57 28° ESE 03:25:42 10° ENE
ARIANE 5 R/B 3.2 03:18:42 10° N 03:23:12 33° WNW 03:23:22 33° WNW
SeaSat 1 3.2 03:18:36 10° SE 03:23:23 53° NE 03:28:12 10° NNW
S3M 4.1 03:21:13 36° SW 03:23:25 52° WNW 03:29:29 10° N
Cosmos 1745 Rocket 4.4 03:18:48 10° NNW 03:24:37 40° W 03:26:32 32° SW
CZ-4C R/B 2.8 03:30:56 57° SSW 03:31:26 68° WSW 03:34:54 10° NNW
USA 267 3.4 03:25:50 10° ENE 03:32:17 64° NNW 03:35:57 27° W
FENGYUN 3A 3.7 03:27:46 10° NNE 03:33:15 81° ESE 03:38:42 10° SSW
Meteor 1-25 Rocket 4.2 03:29:20 10° NNW 03:34:56 84° ENE 03:40:29 10° SSE
Cosmos 1709 Rocket 4.1 03:30:19 10° NNW 03:36:31 54° W 03:42:41 10° SSW
Cosmos 2322 3.8 03:31:06 10° NW 03:36:36 50° WSW 03:42:01 10° S
NOSS 0 Rocket 4.1 03:31:40 10° NNW 03:37:52 78° ENE 03:44:04 10° SE
Cosmos 2184 Rocket 4.4 03:32:32 10° N 03:38:53 69° ENE 03:45:14 10° SSE
Meteor 1-4 Rocket 4.1 03:42:49 22° NW 03:42:49 22° NW 03:44:52 10° NNW
H-2A R/B 1.8 03:38:15 10° SSE 03:42:28 81° WSW 03:46:38 10° NNW
NOSS 3-2 (A) 4.4 03:35:40 10° NW 03:42:35 39° WSW 03:50:16 10° S
Cosmos 1151 Rocket 3.8 03:39:21 10° S 03:43:32 53° E 03:47:43 10° NNE
Cosmos 1633 Rocket 3.0 03:45:38 10° N 03:50:04 87° E 03:54:27 10° S
COSMOS 2487 2.7 03:50:12 39° W 03:50:45 43° WNW 03:54:03 10° NNE
Cosmos 1833 4.5 03:48:29 26° WSW 03:51:28 50° NW 03:56:58 10° NNE
Cosmos 2344 3.6 03:46:42 22° WSW 03:51:43 68° NW 04:00:04 10° NE
Geosat 4.0 03:47:46 10° NNE 03:52:50 83° ESE 03:57:52 10° SSW
CENTAUR R/B 3.4 03:46:03 10° NW 03:53:46 49° WSW 04:02:09 10° S
SKYMED 2 3.9 03:49:39 10° SSE 03:53:57 67° ENE 03:58:17 10° N
Cosmos 2251 Rocket 3.7 03:53:53 21° SW 03:57:20 52° WNW 04:02:38 10° NNE
Meteor 1-20 Rocket 4.2 03:52:22 10° NNW 03:58:01 64° W 04:03:44 10° S
Cosmos 614 Rocket 3.9 03:54:14 14° SSW 03:58:48 70° WNW 04:04:03 10° NNE
IDEFIX/ARIANE 42P 4.2 03:56:42 10° NNW 03:59:39 16° NW 04:00:31 15° WNW
ALOS 2.3 03:57:06 10° N 04:01:43 59° WNW 04:06:18 10° SSW
ISS -3.2 04:00:41 31° WSW 04:01:43 42° SSW 04:04:55 10° SE
Cosmos 1933 3.3 03:58:42 10° SSW 04:02:41 64° WNW 04:06:45 10° N
CZ-2C R/B 4.1 04:00:49 10° NNW 04:03:48 22° WNW 04:04:15 21° WNW
Cosmos 2237 Rocket 2.3 04:01:46 10° NNW 04:07:30 82° ENE 04:13:10 10° SSE
USA 234 4.4 04:04:27 10° S 04:09:06 21° SW 04:11:34 17° W
Meteor 1-31 Rocket 2.8 04:05:42 10° NNE 04:09:36 81° ESE 04:13:26 10° SSW
Iridium 51 4.2 04:06:51 10° NNW 04:10:36 54° W 04:14:04 10° SSW
CSL-04 DEB 4.2 04:06:52 10° SSE 04:10:49 86° WSW 04:14:46 10° NNW
Cosmos 407 Rocket 3.4 04:08:39 10° SSW 04:13:50 87° WNW 04:19:01 10° NNE
PSLV R/B 4.4 04:10:20 10° N 04:14:14 32° WNW 04:17:22 14° WSW
CZ-4C R/B 2.1 04:10:13 11° SW 04:15:09 88° SE 04:21:20 10° NE
USA 276 2.2 04:16:02 21° WSW 04:18:00 71° SSE 04:21:12 10° E
Lacrosse 5 3.3 04:19:24 16° WSW 04:20:57 18° SW 04:24:21 10° SSW
Nadezhda 1 Rocket 4.2 04:15:08 10° S 04:21:16 76° E 04:27:31 10° NNE
NOSS 3-4 (A) 3.4 04:17:20 10° SW 04:23:14 88° SE 04:29:41 10° NE
NOSS 3-4 (C) 3.5 04:17:26 10° SW 04:23:20 87° SE 04:29:47 10° NE
Cosmos 1190 Rocket 4.0 04:20:11 10° SSW 04:25:30 89° WNW 04:30:51 10° NNE
Cosmos 1328 Rocket 3.4 04:21:22 10° SSW 04:25:40 71° WNW 04:29:59 10° N
Cosmos 1515 Rocket 3.8 04:23:29 10° S 04:27:49 73° E 04:32:12 10° NNE
SJ-12 3.8 04:24:04 10° N 04:28:09 77° WNW 04:32:11 10° SSW
Cosmos 2227 Rocket 3.6 04:23:13 10° S 04:28:30 41° ESE 04:33:48 10° NE
Cosmos 2333 Rocket 3.2 04:24:03 10° NW 04:28:32 24° WSW 04:33:01 10° SSW
Cosmos 2082 Rocket 4.5 04:28:02 10° NNW 04:28:50 10° NNW 04:29:38 10° N
SL-16 R/B 3.1 04:24:55 10° NNW 04:30:30 51° NE 04:36:03 10° SE
Meteor PRIRODA 4.2 04:27:08 10° NNE 04:30:51 63° ESE 04:34:33 10° S
Cosmos 1484 Rocket 3.5 04:28:01 10° N 04:31:17 30° WNW 04:34:34 10° SW
Cosmos 1666 3.5 04:28:24 10° N 04:32:11 57° ENE 04:35:57 10° SSE
Cosmos 676 Rocket 4.5 04:27:27 10° SSW 04:32:43 68° ESE 04:37:58 10° NNE
Cosmos 1470 Rocket 3.6 04:30:29 10° NNW 04:34:46 57° W 04:39:00 10° S
CZ-4B R/B 3.4 04:30:37 10° NNE 04:35:09 76° ESE 04:39:40 10° S
Cosmos 1437 Rocket 3.0 04:31:26 10° SSW 04:35:23 51° WNW 04:39:19 10° N
CZ-2C R/B 3.8 04:35:00 10° NNW 04:38:14 18° WNW 04:41:24 10° W
Cosmos 1689 Rocket 2.8 04:35:36 10° SSE 04:38:22 55° ENE 04:41:11 10° N
ATLAS 2AS CENTAUR R/B 3.2 04:30:43 10° SW 04:38:39 81° SE 04:46:25 10° NE
Cosmos 2327 Rocket 4.4 04:33:36 10° NNW 04:39:40 68° W 04:45:41 10° S
deb Chang Zheng 4 3.9 04:36:30 10° NNE 04:40:49 73° ESE 04:45:06 10° S
Envisat 3.6 04:35:54 10° NNE 04:40:58 62° ESE 04:46:00 10° S
CZ-4B R/B 1.6 04:38:12 10° S 04:41:06 38° W 04:43:59 10° NNW
COSMO-SKYMED 1 2.9 04:37:59 10° S 04:42:07 42° W 04:46:16 10° NNW
Cosmos 2219 Rocket 3.3 04:38:58 10° NW 04:43:05 21° W 04:47:12 10° SSW
Cosmos 2297 Rocket 2.7 04:37:59 10° SSW 04:43:34 65° ESE 04:49:11 10° NE
Cosmos 1782 3.2 04:41:33 10° SSW 04:45:19 41° WNW 04:49:07 10° N
Cosmos 1295 Rocket 4.4 04:39:46 10° NNW 04:45:50 71° W 04:51:53 10° S
NOSS 7 (H) 4.5 04:44:05 10° SW 04:47:22 67° SE 04:50:17 10° NE
Cosmos 1140 Rocket 3.7 04:46:16 10° SW 04:51:21 53° WNW 04:56:26 10° NNE
Cosmos 1500 3.5 04:48:10 10° NNW 04:51:47 42° W 04:55:24 10° SSW
Cosmos 1980 4.0 04:46:50 10° NW 04:52:15 47° WSW 04:57:39 10° S
Cosmos 1933 Rocket 3.7 04:50:49 10° NNW 04:55:11 54° W 04:59:31 10° S
ERS-2 2.0 04:51:46 10° S 04:55:23 74° WSW 04:59:02 10° NNW
